TimeEDT,TemperatureF,Dew PointF,Humidity,Sea Level PressureIn,VisibilityMPH,Wind Direction,Wind SpeedMPH,Gust SpeedMPH,PrecipitationIn,Events,Conditions,WindDirDegrees,DateUTC
12:52 AM,48.0,46.0,93,30.03,0.5,Calm,Calm,-,N/A,Fog,Fog,0,2013-05-21 04:52:00
1:12 AM,48.2,44.6,87,30.00,1.2,Calm,Calm,-,N/A,,Overcast,0,2013-05-21 05:12:00
1:15 AM,48.2,46.4,93,29.99,3.0,South,3.5,-,N/A,,Overcast,190,2013-05-21 05:15:00
1:29 AM,46.4,44.6,93,29.99,4.0,Calm,Calm,-,N/A,,Mostly Cloudy,0,2013-05-21 05:29:00
1:39 AM,46.4,44.6,93,30.00,2.5,Calm,Calm,-,N/A,,Scattered Clouds,0,2013-05-21 05:39:00
1:50 AM,48.2,44.6,87,30.00,1.8,Calm,Calm,-,N/A,,Mostly Cloudy,0,2013-05-21 05:50:00
1:52 AM,48.0,45.0,89,30.01,1.5,Calm,Calm,-,N/A,,Mostly Cloudy,0,2013-05-21 05:52:00
1:57 AM,46.4,44.6,93,30.00,0.8,Calm,Calm,-,N/A,,Mist,0,2013-05-21 05:57:00
2:52 AM,46.9,45.0,93,29.99,0.5,Calm,Calm,-,0.00,Fog,Fog,0,2013-05-21 06:52:00
3:05 AM,48.2,46.4,93,29.98,1.2,Calm,Calm,-,N/A,,Overcast,0,2013-05-21 07:05:00
3:16 AM,48.2,46.4,93,29.98,3.0,Calm,Calm,-,N/A,,Overcast,0,2013-05-21 07:16:00
3:50 AM,48.2,46.4,93,29.95,6.0,Calm,Calm,-,N/A,,Overcast,0,2013-05-21 07:50:00
3:52 AM,48.9,46.9,93,29.95,6.0,Calm,Calm,-,N/A,,Overcast,0,2013-05-21 07:52:00
4:52 AM,50.0,48.0,93,29.94,8.0,Calm,Calm,-,N/A,,Overcast,0,2013-05-21 08:52:00
5:52 AM,52.0,50.0,93,29.93,9.0,Calm,Calm,-,N/A,,Overcast,0,2013-05-21 09:52:00
6:30 AM,51.8,50.0,94,29.93,1.8,NW,8.1,-,0.07,Rain,Rain,310,2013-05-21 10:30:00
6:42 AM,53.6,50.0,88,29.91,1.5,Variable,4.6,-,0.13,Rain,Rain,0,2013-05-21 10:42:00
6:47 AM,53.6,51.8,94,29.89,3.0,East,5.8,-,0.13,Rain,Light Rain,90,2013-05-21 10:47:00
6:52 AM,53.1,52.0,96,29.90,5.0,SE,4.6,-,0.13,Rain,Light Rain,140,2013-05-21 10:52:00
7:52 AM,54.0,52.0,93,29.92,7.0,WNW,4.6,-,0.01,,Overcast,290,2013-05-21 11:52:00
8:04 AM,55.4,53.6,94,29.92,8.0,Calm,Calm,-,0.00,Rain,Light Rain,0,2013-05-21 12:04:00
8:52 AM,57.0,54.0,89,29.93,10.0,Calm,Calm,-,0.00,,Overcast,0,2013-05-21 12:52:00
9:42 AM,57.2,55.4,94,29.91,10.0,Calm,Calm,-,N/A,,Overcast,0,2013-05-21 13:42:00
9:52 AM,59.0,55.0,87,29.93,10.0,Calm,Calm,-,N/A,,Overcast,0,2013-05-21 13:52:00
10:20 AM,60.8,55.4,82,29.93,10.0,Calm,Calm,-,N/A,,Overcast,0,2013-05-21 14:20:00
10:39 AM,62.6,57.2,82,29.92,10.0,Calm,Calm,-,N/A,,Overcast,0,2013-05-21 14:39:00
10:52 AM,63.0,57.0,81,29.93,10.0,NE,3.5,-,N/A,,Overcast,50,2013-05-21 14:52:00
11:08 AM,64.4,57.2,77,29.92,10.0,NE,3.5,-,N/A,,Mostly Cloudy,50,2013-05-21 15:08:00
11:52 AM,64.0,57.9,80,29.93,10.0,East,4.6,-,N/A,,Overcast,80,2013-05-21 15:52:00
12:52 PM,64.0,57.9,80,29.94,10.0,NE,4.6,-,N/A,,Overcast,50,2013-05-21 16:52:00
1:52 PM,64.9,57.9,78,29.94,10.0,East,4.6,-,N/A,,Overcast,80,2013-05-21 17:52:00
2:23 PM,62.6,57.2,82,29.94,10.0,ENE,6.9,-,N/A,,Overcast,60,2013-05-21 18:23:00
2:50 PM,60.8,55.4,82,29.94,10.0,East,12.7,18.4,N/A,,Overcast,90,2013-05-21 18:50:00
2:52 PM,61.0,54.0,78,29.95,10.0,East,12.7,19.6,N/A,,Overcast,80,2013-05-21 18:52:00
3:52 PM,57.9,51.1,78,29.95,10.0,East,17.3,23.0,N/A,,Overcast,80,2013-05-21 19:52:00
4:21 PM,57.2,48.2,72,29.94,10.0,East,17.3,26.5,N/A,,Overcast,90,2013-05-21 20:21:00
4:52 PM,57.0,48.9,74,29.94,10.0,East,19.6,29.9,N/A,,Overcast,90,2013-05-21 20:52:00
5:11 PM,57.2,48.2,72,29.94,10.0,East,17.3,31.1,N/A,,Overcast,90,2013-05-21 21:11:00
5:52 PM,55.9,48.9,77,29.95,10.0,East,17.3,-,N/A,,Overcast,90,2013-05-21 21:52:00
6:52 PM,55.0,46.9,74,29.94,10.0,East,17.3,27.6,N/A,,Mostly Cloudy,90,2013-05-21 22:52:00
7:03 PM,55.4,46.4,72,29.94,10.0,East,13.8,24.2,N/A,,Mostly Cloudy,90,2013-05-21 23:03:00
7:28 PM,55.4,46.4,72,29.94,10.0,East,17.3,27.6,N/A,,Overcast,100,2013-05-21 23:28:00
7:47 PM,53.6,46.4,77,29.93,10.0,East,13.8,26.5,N/A,,Mostly Cloudy,100,2013-05-21 23:47:00
7:52 PM,54.0,46.9,77,29.95,10.0,East,16.1,25.3,N/A,,Mostly Cloudy,100,2013-05-21 23:52:00
8:38 PM,53.6,46.4,77,29.95,10.0,East,17.3,28.8,0.01,Rain,Light Rain,100,2013-05-22 00:38:00
8:52 PM,53.1,46.9,80,29.95,10.0,East,16.1,28.8,0.01,,Overcast,100,2013-05-22 00:52:00
9:11 PM,53.6,46.4,77,29.94,10.0,East,11.5,26.5,N/A,,Overcast,90,2013-05-22 01:11:00
9:52 PM,54.0,46.9,77,29.99,10.0,Calm,Calm,-,0.00,Rain,Light Rain,0,2013-05-22 01:52:00
10:05 PM,53.6,46.4,77,30.04,1.8,ESE,8.1,19.6,0.11,Rain,Heavy Rain,120,2013-05-22 02:05:00
10:15 PM,51.8,48.2,88,30.03,3.0,Variable,5.8,-,0.18,Rain,Rain,0,2013-05-22 02:15:00
10:22 PM,51.8,48.2,88,30.02,4.0,East,6.9,-,0.20,Rain-Thunderstorm,Rain,80,2013-05-22 02:22:00
10:37 PM,51.8,48.2,88,30.01,5.0,East,8.1,-,0.27,Rain,Rain,80,2013-05-22 02:37:00
10:52 PM,52.0,48.0,86,29.96,9.0,East,9.2,-,0.31,Rain,Light Rain,90,2013-05-22 02:52:00
11:52 PM,53.1,48.0,83,29.91,10.0,NW,3.5,-,0.02,,Mostly Cloudy,310,2013-05-22 03:52:00